YAOGAN-43 01F

Last updated on Mon Sep 16 2024 00:02:03 GMT+0000 (Coordinated Universal Time)

1 60463U 24148F 24259.38214327 .00022556 00000+0 96370-3 0 9997 2 60463 34.9983 226.2694 0006134 188.7909 171.2699 15.21963340 4535
UTC large
Height (km)
Speed (km/s)
/
Latitude / Longitude
Inclination (degrees)
Orbital Period (minutes)
Azimuth
Elevation
Range (km)
Doppler Factor

Next 0 passes for location: London (51.5072 / 0.1276)

Sorry there are no passes over London.